D8954 Weather Reports


Display with metric or nautical units.
time (UTC)temp
F
wind
direction
speed
MPH
gust
MPH
rain 1hr
in
rain 24hr
in
rain mn
in
humidity
%
barometer
mb
20260504190504 59 274 1.0 2.0 0.00 0.00 0.00 72 1012.0
20260504190004 59 255 1.0 2.0 0.00 0.00 0.00 72 1012.0
20260504185504 59 248 0.0 2.0 0.00 0.00 0.00 73 1011.9
20260504185004 60 258 1.0 2.0 0.00 0.00 0.00 73 1011.9
20260504184504 60 291 0.0 0.0 0.00 0.00 0.00 72 1011.7
20260504184003 60 291 0.0 0.0 0.00 0.00 0.00 72 1011.7
20260504183504 60 18 0.0 0.0 0.00 0.00 0.00 71 1011.7
20260504183004 60 27 0.0 0.0 0.00 0.00 0.00 71 1011.7
20260504182504 61 27 0.0 0.0 0.00 0.00 0.00 69 1011.7
20260504181503 61 27 0.0 2.0 0.00 0.00 0.00 68 1011.6
20260504181003 62 27 1.0 2.0 0.00 0.00 0.00 68 1011.6
20260504180504 62 27 0.0 1.0 0.00 0.00 0.00 67 1011.6
20260504175004 63 27 0.0 2.0 0.00 0.00 0.00 66 1011.5
20260504174504 63 27 0.0 2.0 0.00 0.00 0.00 65 1011.5
20260504174004 63 27 0.0 1.0 0.00 0.00 0.00 64 1011.4
20260504173504 63 27 0.0 1.0 0.00 0.00 0.00 64 1011.5
20260504173005 64 27 1.0 2.0 0.00 0.00 0.00 64 1011.4
20260504172503 64 28 1.0 3.0 0.00 0.00 0.00 62 1011.4
20260504172004 64 22 1.0 3.0 0.00 0.00 0.00 62 1011.4
20260504171504 65 54 1.0 5.0 0.00 0.00 0.00 62 1011.4
20260504171004 65 18 2.0 3.0 0.00 0.00 0.00 61 1011.4
20260504170504 65 314 1.0 5.0 0.00 0.00 0.00 61 1011.4
20260504141003 68 211 1.0 2.0 0.00 0.00 0.00 58 1012.3
20260504140504 67 213 1.0 3.0 0.00 0.00 0.00 56 1012.3
20260504130506 67 332 1.0 2.0 0.00 0.00 0.00 60 1012.5
20260504110505 67 249 1.0 3.0 0.00 0.00 0.00 55 1012.8
20260504082005 64 246 3.0 7.0 0.00 0.00 0.00 58 1013.7
20260504081505 64 224 3.0 5.0 0.00 0.00 0.00 58 1013.7
20260504081005 64 257 2.0 5.0 0.00 0.00 0.00 58 1013.8
20260504080506 63 190 3.0 7.0 0.00 0.00 0.00 60 1013.8
20260504050505 53 240 0.0 0.0 0.00 0.01 0.00 72 1013.5
20260504045505 52 240 0.0 2.0 0.00 0.02 0.00 72 1013.5
20260504044505 51 240 1.0 2.0 0.00 0.02 0.00 71 1013.5
20260504044005 51 240 1.0 2.0 0.00 0.02 0.00 70 1013.3
20260504043505 51 240 1.0 2.0 0.00 0.02 0.00 69 1013.4
20260504043006 51 240 1.0 2.0 0.00 0.02 0.00 69 1013.4
20260504042504 51 240 1.0 2.0 0.00 0.02 0.00 69 1013.3
20260504042005 51 241 1.0 2.0 0.00 0.02 0.00 69 1013.3
20260504041006 50 215 1.0 2.0 0.00 0.02 0.00 70 1013.2
20260504040005 51 232 2.0 3.0 0.00 0.02 0.00 69 1013.3
20260504035505 51 232 2.0 3.0 0.00 0.02 0.00 69 1013.4
20260504035005 51 232 2.0 3.0 0.00 0.02 0.00 68 1013.3
20260504034505 51 229 1.0 2.0 0.00 0.02 0.00 68 1013.3
20260504034005 51 229 2.0 3.0 0.00 0.02 0.00 69 1013.4
20260504033506 50 235 2.0 3.0 0.00 0.02 0.00 69 1013.4
20260504033006 50 233 2.0 3.0 0.00 0.02 0.00 69 1013.4
20260504032505 50 232 1.0 3.0 0.00 0.02 0.00 69 1013.4
20260504032005 51 233 2.0 2.0 0.00 0.02 0.00 68 1013.5
20260504031005 51 233 1.0 3.0 0.00 0.02 0.00 68 1013.5
20260504030506 51 233 2.0 3.0 0.00 0.02 0.00 67 1013.5
20260504030005 50 234 2.0 2.0 0.00 0.02 0.00 69 1013.6
20260504025505 51 236 1.0 2.0 0.00 0.02 0.00 69 1013.5
20260504025005 50 236 1.0 2.0 0.00 0.02 0.00 69 1013.5
20260504024505 50 236 2.0 2.0 0.00 0.02 0.00 70 1013.6
20260504024005 51 235 1.0 2.0 0.00 0.02 0.00 69 1013.7
20260504023505 51 235 2.0 2.0 0.00 0.02 0.00 69 1013.6
20260504023006 52 235 1.0 2.0 0.00 0.02 0.00 67 1013.6
20260504022505 52 235 1.0 2.0 0.00 0.02 0.00 66 1013.6
20260504021505 52 235 1.0 3.0 0.00 0.02 0.00 67 1013.7
20260504021005 52 235 1.0 1.0 0.00 0.02 0.00 67 1013.5
20260504020005 52 235 1.0 1.0 0.00 0.02 0.00 67 1013.5
20260504015505 52 235 1.0 1.0 0.00 0.02 0.00 67 1013.5
20260504015005 51 235 1.0 2.0 0.00 0.02 0.00 70 1013.5
20260504014505 51 235 2.0 2.0 0.00 0.02 0.00 68 1013.5
20260504014005 53 235 2.0 2.0 0.00 0.02 0.00 66 1013.5
20260504013505 53 235 1.0 2.0 0.00 0.02 0.00 65 1013.5
20260504013006 53 235 2.0 2.0 0.00 0.02 0.00 65 1013.5
20260504012505 53 235 1.0 2.0 0.00 0.02 0.00 65 1013.5
20260504011505 53 235 1.0 2.0 0.00 0.02 0.00 65 1013.4
20260504011005 53 235 1.0 1.0 0.00 0.02 0.00 65 1013.4
20260504010505 54 235 1.0 3.0 0.00 0.02 0.00 64 1013.5
20260504010005 54 266 1.0 2.0 0.00 0.02 0.00 64 1013.5
20260504005505 55 266 1.0 2.0 0.00 0.02 0.00 62 1013.4
20260504004005 56 269 1.0 1.0 0.00 0.02 0.00 62 1013.5
20260504003505 56 269 1.0 2.0 0.00 0.02 0.00 62 1013.5
20260504003006 56 269 1.0 2.0 0.00 0.02 0.00 61 1013.5
20260504002505 56 272 2.0 3.0 0.00 0.02 0.00 61 1013.6
20260504001505 56 271 2.0 2.0 0.00 0.02 0.00 63 1013.6
20260504001005 55 271 2.0 2.0 0.00 0.02 0.00 64 1013.6
20260504000505 56 271 2.0 3.0 0.00 0.02 0.00 65 1013.6
20260504000005 56 271 2.0 3.0 0.00 0.02 0.00 61 1013.6
20260503235505 57 269 2.0 3.0 0.00 0.02 0.00 61 1013.7
20260503234505 58 252 1.0 2.0 0.00 0.02 0.00 55 1013.7
20260503234005 58 252 0.0 2.0 0.00 0.02 0.00 55 1013.7
20260503233505 58 252 1.0 1.0 0.00 0.02 0.00 56 1013.8
20260503233006 58 252 0.0 1.0 0.00 0.02 0.00 57 1013.8
20260503232504 58 252 0.0 2.0 0.00 0.02 0.00 56 1013.8
20260503232005 58 252 1.0 2.0 0.00 0.02 0.00 55 1013.9
20260503231005 58 245 0.0 2.0 0.00 0.02 0.00 55 1013.8
20260503230504 58 229 0.0 2.0 0.00 0.02 0.00 56 1013.9
20260503230005 58 229 1.0 3.0 0.00 0.02 0.00 57 1013.9
20260503225505 58 234 0.0 2.0 0.00 0.02 0.00 56 1013.8
20260503225005 59 234 1.0 2.0 0.00 0.02 0.00 56 1013.8
20260503224005 59 238 1.0 2.0 0.00 0.02 0.00 57 1013.7
20260503223505 59 240 1.0 3.0 0.00 0.02 0.00 54 1013.6
20260503222505 59 223 0.0 2.0 0.00 0.02 0.00 56 1013.5
20260503222005 59 223 1.0 2.0 0.00 0.02 0.00 54 1013.4
20260503221505 59 224 0.0 2.0 0.00 0.02 0.00 54 1013.4
20260503221005 60 245 0.0 2.0 0.00 0.02 0.00 56 1013.4
20260503215005 60 339 1.0 6.0 0.00 0.02 0.02 53 1013.3
20260503214505 60 242 0.0 2.0 0.00 0.02 0.02 57 1013.6
20260503214005 60 230 2.0 3.0 0.00 0.02 0.02 53 1013.5
20260503213505 60 220 2.0 3.0 0.00 0.02 0.02 55 1013.4
20260503212505 60 227 1.0 3.0 0.00 0.02 0.02 55 1013.5
20260503212005 61 244 0.0 2.0 0.00 0.02 0.02 54 1013.4
20260503211505 61 249 1.0 3.0 0.00 0.02 0.02 54 1013.5
20260503211005 61 215 1.0 3.0 0.00 0.02 0.02 52 1013.5
20260503210505 61 231 2.0 3.0 0.00 0.02 0.02 51 1013.5
20260503210005 61 224 2.0 6.0 0.00 0.02 0.02 52 1013.5
20260503205005 61 228 3.0 6.0 0.00 0.02 0.02 50 1013.5
20260503204505 62 221 3.0 5.0 0.00 0.02 0.02 50 1013.4
20260503203006 62 162 2.0 9.0 0.00 0.02 0.02 49 1013.1
20260503202505 62 327 3.0 6.0 0.00 0.02 0.02 50 1013.1
20260503202005 62 282 2.0 8.0 0.00 0.02 0.02 48 1013.2
20260503201504 62 308 2.0 10.0 0.00 0.02 0.02 48 1013.2
20260503201005 62 344 2.0 5.0 0.00 0.02 0.02 49 1013.3
20260503200505 62 332 2.0 5.0 0.00 0.02 0.02 50 1013.3
20260503200005 63 1 2.0 6.0 0.00 0.02 0.02 48 1013.2
20260503195505 63 284 1.0 3.0 0.00 0.02 0.02 48 1013.2
20260503195005 63 351 2.0 10.0 0.00 0.02 0.02 49 1013.1
20260503194005 63 267 3.0 8.0 0.00 0.02 0.02 50 1013.1
20260503193505 63 306 3.0 8.0 0.00 0.02 0.02 48 1013.2
20260503192519 64 243 1.0 7.0 0.00 0.02 0.02 48 1013.1
20260503192004 64 227 3.0 8.0 0.00 0.02 0.02 48 1013.1
20260503191505 64 201 2.0 5.0 0.00 0.02 0.02 47 1013.0